Terminal Aerodrome Forecast
Issued by NWS Raleigh/Durham, NC

Home | Current Version | Previous Version | Text Only | Print | Product List | Glossary On
Versions: 1 2 3 4 5 6 7 8 9 10 11 12 13 14 15 16 17 18 19 20 21
000
FTUS42 KRAH 241140
TAFGSO
TAF
KGSO 241140Z 2412/2512 VRB04KT P6SM FEW120 SCT250
     FM250900 16004KT P6SM VCSH BKN012 BKN030=

USA.gov is the U.S. government's official web portal to all federal, state and local government web resources and services.